Content
SEND FEEDBACK

Australia Flag

PINK LILY, QUEENSLAND


Home > Oceania > Australia > Queensland
Elevation: 32 feet     Latitude: 23 22S     Longitude: 150 28E

WEATHER
 
SELECT A DAY
Number of Records: 322,642;   Date Range: 2/21/97 - 3/22/16
 
SHARE

PRINT THIS DATA

[ ← Previous Day ]
WEATHER ALMANAC - JANUARY 22, 2013
[ Next Day → ]
[ °C ]   °F
Weather ElementAverageHighLow
Temperature81.3 °F90 °F (3:00 pm)71.6 °F (5:00 am)
Dewpoint69 °F73.4 °F (11:30 am)66.2 °F (2:00 pm)
Humidity66 %88 % (5:00 am)37 % (3:00 pm)
Barometer29.75 in29.81 in (10:00 pm)29.68 in (3:30 pm)
Wind Speed10.6 mph15 mph (12:00 pm)
Weather ElementAverage
Visibility7.6 mi
Wind DirectionESE (107 °)

Weather ElementTotal
Precipitation---
Cooling Degree Days15.8 (Base 65)
Growing Degree Days30.8 (Base 50)
Averaged from 63 records on January 22, 2013
WEATHER CONDITIONS BREAKOUT
WIND DIRECTION BREAKOUT
WEATHER BY HOUR - JANUARY 22, 2013
[ °C ]   °F
Local TimeTemperatureDewpointHumidityBarometerVisibilityWind DirectionWind SpeedGust SpeedPrecipitationEventsConditions
12:00 AM77.0 °F68.0 °F74 %29.77 in6.2 miESE (120°)8.1 mph
12:30 AM77.0 °F68.0 °F74 %29.77 in6.2 miESE (120°)8.1 mph
1:00 AM77.0 °F68.0 °F67 %29.77 inESE (120°)8.1 mph
1:00 AM77.0 °F68.0 °F74 %29.77 in6.2 miESE (120°)8.1 mph
1:30 AM77.0 °F68.0 °F74 %29.74 in6.2 miESE (120°)8.1 mph
2:00 AM75.2 °F68.0 °F78 %29.74 in6.2 miSE (130°)8.1 mph
2:30 AM75.2 °F68.0 °F78 %29.74 in6.2 miSE (140°)6.9 mph
3:00 AM73.4 °F68.0 °F83 %29.71 in6.2 miSSE (150°)5.8 mph
3:00 AM74.0 °F68.0 °F76 %29.73 inSSE (150°)5.8 mph
3:30 AM73.4 °F68.0 °F83 %29.71 in6.2 miSE (140°)6.9 mph
4:00 AM74.0 °F68.0 °F75 %29.73 inSSE (150°)6.9 mph
4:00 AM73.4 °F68.0 °F83 %29.71 in6.2 miSSE (150°)6.9 mphScattered Clouds
4:30 AM73.4 °F68.0 °F83 %29.71 in6.2 miSE (130°)6.9 mph
5:00 AM71.6 °F68.0 °F88 %29.74 in6.2 miESE (120°)6.9 mph
5:30 AM71.6 °F68.0 °F88 %29.74 in6.2 miSE (130°)5.8 mph
6:00 AM71.6 °F68.0 °F88 %29.74 in6.2 miSE (130°)5.8 mphPartly Cloudy
6:00 AM72.0 °F68.0 °F85 %29.76 in25.0 miSE (130°)5.8 mphPartly Cloudy
6:30 AM73.4 °F68.0 °F83 %29.77 in6.2 miESE (120°)8.1 mphRainLight Rain Showers
7:00 AM76.0 °F69.0 °F73 %29.78 inSE (140°)8.1 mph
7:00 AM75.2 °F69.8 °F83 %29.77 in6.2 miSE (140°)8.1 mphPartly Cloudy
7:30 AM78.8 °F69.8 °F74 %29.77 in6.2 miSE (130°)10.4 mphMostly Cloudy
8:00 AM82.4 °F69.8 °F66 %29.77 in6.2 miSE (140°)9.2 mphScattered Clouds
8:30 AM82.4 °F69.8 °F66 %29.77 in6.2 miESE (120°)8.1 mphMostly Cloudy
9:00 AM86.0 °F68.0 °F55 %29.77 in6.2 miEast (80°)11.5 mphMostly Cloudy
9:00 AM85.0 °F67.0 °F46 %29.78 in25.0 miEast (80°)11.5 mphPartly Cloudy
9:30 AM86.0 °F68.0 °F55 %29.77 in6.2 miESE (110°)12.7 mphMostly Cloudy
10:00 AM88.0 °F67.0 °F41 %29.78 inEast (100°)13.8 mph
10:00 AM87.8 °F68.0 °F52 %29.77 in6.2 miEast (100°)13.8 mphMostly Cloudy
10:30 AM87.8 °F68.0 °F52 %29.77 in6.2 miESE (110°)12.7 mphMostly Cloudy
11:00 AM87.8 °F69.8 °F55 %29.77 in6.2 miENE (70°)10.4 mphMostly Cloudy
11:30 AM80.6 °F73.4 °F79 %29.77 in6.2 miNE (50°)10.4 mphMostly Cloudy
12:00 PM84.2 °F69.8 °F62 %29.77 in6.2 miEast (80°)15.0 mphScattered Clouds
12:00 PM84.0 °F69.0 °F52 %29.77 in25.0 miEast (80°)15.0 mphMostly Cloudy
12:30 PM86.0 °F68.0 °F55 %29.74 in6.2 miEast (80°)12.7 mphMostly Cloudy
1:00 PM88.0 °F69.0 °F43 %29.75 inNE (50°)13.8 mph
1:00 PM87.8 °F68.0 °F52 %29.74 in6.2 miNE (50°)13.8 mphMostly Cloudy
1:30 PM87.8 °F68.0 °F52 %29.71 in6.2 miENE (70°)11.5 mphMostly Cloudy
2:00 PM89.6 °F66.2 °F46 %29.71 in6.2 miESE (110°)13.8 mphMostly Cloudy
2:30 PM89.6 °F68.0 °F49 %29.71 in6.2 miEast (100°)13.8 mphScattered Clouds
3:00 PM89.6 °F66.2 °F46 %29.71 in6.2 miEast (80°)10.4 mphMostly Cloudy
3:00 PM90.0 °F67.0 °F37 %29.71 in25.0 miEast (80°)10.4 mphPartly Cloudy
3:30 PM89.6 °F66.2 °F46 %29.68 in6.2 miEast (100°)12.7 mphScattered Clouds
4:00 PM89.0 °F67.0 °F38 %29.71 inENE (70°)15.0 mph
4:00 PM89.6 °F66.2 °F46 %29.71 in6.2 miENE (70°)15.0 mphPartly Cloudy
4:30 PM89.6 °F68.0 °F49 %29.68 in6.2 miEast (90°)12.7 mphScattered Clouds
5:00 PM87.8 °F68.0 °F52 %29.71 in6.2 miENE (60°)13.8 mphScattered Clouds
5:30 PM86.0 °F69.8 °F58 %29.71 in6.2 miEast (80°)13.8 mphScattered Clouds
6:00 PM84.2 °F69.8 °F62 %29.71 in6.2 miESE (110°)12.7 mphScattered Clouds
6:00 PM84.0 °F71.0 °F56 %29.73 inESE (110°)12.7 mph
6:30 PM82.4 °F69.8 °F66 %29.74 in6.2 miEast (90°)10.4 mphScattered Clouds
7:00 PM82.0 °F70.0 °F59 %29.76 inEast (100°)11.5 mph
7:00 PM82.4 °F69.8 °F66 %29.74 in6.2 miEast (100°)11.5 mphScattered Clouds
7:30 PM80.6 °F71.6 °F74 %29.77 in6.2 miEast (100°)9.2 mph
8:00 PM80.6 °F71.6 °F74 %29.77 in6.2 miEast (100°)11.5 mph
8:30 PM80.6 °F71.6 °F74 %29.77 in6.2 miESE (110°)10.4 mphScattered Clouds
9:00 PM80.6 °F73.4 °F79 %29.77 in6.2 miESE (110°)13.8 mphScattered Clouds
9:00 PM80.0 °F73.0 °F73 %29.79 inESE (110°)13.8 mph
9:30 PM80.6 °F71.6 °F74 %29.80 in6.2 miESE (110°)12.7 mphScattered Clouds
10:00 PM80.0 °F72.0 °F72 %29.81 inESE (120°)9.2 mph
10:00 PM80.6 °F73.4 °F79 %29.80 in6.2 miESE (120°)9.2 mph
10:30 PM78.8 °F71.6 °F78 %29.80 in6.2 miESE (120°)11.5 mphScattered Clouds
11:00 PM78.8 °F71.6 °F78 %29.80 in6.2 miESE (120°)12.7 mph
11:30 PM78.8 °F71.6 °F78 %29.77 in6.2 miESE (120°)11.5 mph
Hourly data recorded from YBRK, located miles away from Pink Lily, Queensland




STORIES FROM OUR PARTNERS